Regional Weather Roundup
Issued by NWS Charleston, SC

Current Version | Previous Version | Graphics & Text | Print | Product List | Glossary On
Versions: 1 2 3 4 5 6 7 8 9 10 11 12 13 14 15 16 17 18 19 20 21 22 23 24 25 26 27 28 29 30 31 32 33 34 35 36 37 38 39 40 41 42 43 44 45 46 47 48 49 50
000 ASUS42 KCHS 162110 RWRCHS REGIONAL WEATHER ROUNDUP NATIONAL WEATHER SERVICE CHARLESTON SC 500 PM EDT TUE SEP 16 2014 NOTE: "FAIR" INDICATES FEW OR NO CLOUDS BELOW 12,000 FEET WITH NO SIGNIFICANT WEATHER AND/OR OBSTRUCTIONS TO VISIBILITY. NOT ALL STATIONS ARE QUALITY CONTROLLED BY THE NATIONAL WEATHER SERVICE. USE DATA WITH CAUTION...ESPECIALLY DEWPOINT OBSERVATIONS. SCZ027-030-031-034>040-042>050-162200- ...SOUTH CAROLINA... CITY SKY/WX TMP DP RH WIND PRES REMARKS N CHARLESTON TSTM 75 72 88 S7 29.96S FOG WATERFRONT PRK N/A 75 N/A N/A CALM N/A FORT JOHNSON NOT AVBL MOUNT PLEASANT FAIR 75 73 94 CALM 29.96S FOG JOHNS ISLAND HVY RAIN 73 73 100 CALM 29.96S PINOPOLIS N/A 90 72 55 E2 29.89R HX 96 MONCKS CORNER N/A 82 75 78 SE10 29.95S SUMMERVILLE MOCLDY 81 77 89 SE8 29.95S BEAUFORT MCAS PTSUNNY 82 73 74 NE3 29.95R THUNDER BEAUFORT ARPT MOCLDY 73 72 94 SE7 29.93F THUNDER HILTON HEAD IS RAIN 77 75 94 S5 29.96F VSB 1 GEORGETOWN NOT AVBL WALTERBORO PTCLDY 86 70 58 CALM 29.94F HX 90 ORANGEBURG PTSUNNY 86 68 54 N3 29.93F BARNWELL FAIR 90 70 51 W5 29.94F HX 95 AIKEN FAIR 88 70 55 NW6 29.98F HX 92 MANNING FAIR 86 73 66 CALM 29.93F HX 93 KINGSTREE NOT AVBL COLUMBIA MOSUNNY 90 66 45 N5 29.93F HX 92 SUMTER MOSUNNY 87 67 51 NE6 29.93F HX 90 FLORENCE SUNNY 87 67 51 VRB6 29.94F HX 90 MYRTLE BEACH PTSUNNY 86 72 62 S12 29.95F HX 92 N MYRTLE BEACH PTSUNNY 84 70 62 S5 29.94F $$ GAZ063-065-086>088-099>101-113>116-118-119-134-136>141-150-162200- ...GEORGIA... CITY SKY/WX TMP DP RH WIND PRES REMARKS SAVANNAH ARPT PTSUNNY 86 72 62 SW6 29.93F HX 92 HUNTER AAF CLOUDY 84 75 74 E13 29.92S THUNDER HX 92 FORT STEWART PTSUNNY 86 73 66 S6 29.92F HX 93 STATESBORO NOT AVBL SYLVANIA CLEAR 89 77 67 CALM 29.94S HX 101 CLAXTON NOT AVBL THOMSON MOSUNNY 87 75 67 NW3 29.99F HX 97 AUGUSTA-BUSH SUNNY 89 67 47 VRB3 29.92F HX 92 AUGUSTA-DANIEL SUNNY 89 65 44 NW6 29.95F HX 91 SWAINSBORO FAIR 90 70 51 N5 29.95S HX 95 VIDALIA MOSUNNY 82 73 74 S7 29.96F ALMA PTSUNNY 85 72 65 SE6 29.95F HX 91 WAYCROSS CLOUDY 84 79 84 CALM 29.95S HX 96 JESUP MOCLDY 86 75 70 CALM 29.95S HX 95 BRUNSWICK CLOUDY 82 73 74 SE5 29.96F SAINT SIMONS CLOUDY 81 73 76 S5 29.95F $$ SCZ027-028-034-036>038-045-046-048>050-GAZ119-141-162200- ...LAKE AND SUPPLEMENTAL COASTAL OBSERVATIONS... STATION/POSITION TIME TEMP WIND PRES WAVE SWELL AIR SEA DIR/SP/G HT/PER HT/PER/DIR (UTC) (F) (DEG/KT/KT) (MB) (FT/S) (FT/S/D) UPR LAKE MARION NOT AVBL WINYAH BAY 2000 79 160/ 6 1014.0F LAKE MURRAY 2000 87 160/ 3/ 4 1013.2F ACE BASIN NERRS 2000 78 140/ 3 1014.0F FORT PULASKI 2100 80 50/ 2/ 3 1014.7R SAPELO ISLAND 2000 88 CALM 1015.0F $$ ANZ835-935-AMZ111-154-330-350-352-354-374-450-454-472-162200- ...C-MAN AND BUOY OBSERVATIONS... STATION/POSITION TIME TEMP WIND PRES WAVE SWELL AIR SEA DIR/SP/G HT/PER HT/PER/DIR (UTC) (F) (DEG/KT/KT) (MB) (FT/S) (FT/S/D) FOLLY BEACH CMAN 2000 80 130/ 5/ 7 1015.1F BUOY 41004 2100 80 84 340/ 4/ 6 1013.9F 1/ 8 2/ 8 BUOY 41008 2100 80 85 190/ 4/ 6 1014.1F 1/ 8 2/ 90/ 8 5E ST. MARYS GA 2100 83 N/A 2/ 9 FRYING PAN BUOY NOT AVBL BUOY 41025 2100 77 280/ 2/ 2 1014.3F 2/ 8 2/ 40/ 8 CAPE LOOKOUT NC 2000 78 180/ 8/ 8 1014.5F BUOY 41002 2049 79 83 320/ 8/ 12 1015.3S 3/ 7 3/ 40/ 7 BUOY 41010 2100 79 85 140/ 8/ 10 1015.3F 2/ 8 2/ 30/ 8 BUOY 41012 NOT AVBL ST AUGUSTINE FL 2100 81 240/ 9/ 13 1015.6F CAPERS NEARSHORE NOT AVBL FRIPP NEARSHORE NOT AVBL $$

USA.gov is the U.S. government's official web portal to all federal, state and local government web resources and services.